Wind_Speed
8 19 11 12 10 10 11 13 14 15 12 9 8 9 9 11 14 13 12 11 9 5 9 9 16 19 10 10 10 10 5 11 9 11 8 6 5 6 7 7 12 7 11 8 8 6 10 19 21 12 26 39 36 36
13 17 11 10 9 9 10 12 13 15 12 9 8 7 8 8 9 12 12 10 10 7 3 3 11 16 16 2 7 10 11 8 11 9 8 4 4 4 11 4 9 6 14 14 12 13 23 29 29 28 33 41 43 42
16 15 11 8 9 8 9 11 13 14 13 9 8 7 5 7 9 12 15 12 10 10 4 7 5 10 19 16 15 3 8 6 10 15 9 6 8 6 7 9 15 14 17 22 21 24 26 27 24 27 37 44 47 50
13 13 9 8 8 8 9 10 12 13 12 9 8 8 6 7 9 10 12 11 11 11 9 9 13 12 10 12 17 11 4 9 8 13 11 9 7 11 10 11 13 14 14 20 27 31 27 19 23 27 27 32 37 40
13 12 7 8 7 7 8 9 12 12 10 10 10 8 7 8 9 9 11 9 11 11 12 11 7 5 10 11 15 15 3 6 10 15 15 11 14 16 11 8 13 18 19 19 24 29 25 26 27 26 25 22 22 22
14 10 8 7 6 6 7 9 11 10 10 10 11 8 8 10 9 9 9 7 11 13 16 12 8 11 11 15 9 16 8 6 8 13 15 13 13 11 9 11 17 18 18 19 21 24 26 25 23 27 22 19 20 22
10 10 8 7 5 5 6 8 10 10 9 10 11 9 10 10 10 10 12 12 13 14 15 11 2 8 15 5 8 11 11 4 8 13 13 15 8 9 11 15 18 18 19 19 20 23 28 26 28 27 26 20 15 18
10 11 9 8 5 4 4 6 9 11 11 10 11 11 10 11 11 11 13 13 14 15 15 7 5 11 12 8 10 11 9 9 8 9 9 4 4 12 9 13 8 15 19 18 18 21 25 26 31 27 30 23 16 13
12 11 10 9 6 5 5 7 10 11 13 12 12 12 9 8 11 11 11 12 13 14 12 13 15 9 9 14 13 9 8 10 9 12 12 11 15 10 9 10 7 11 12 16 19 22 20 26 26 32 28 26 22 14
12 11 11 9 6 5 5 7 10 12 13 13 13 9 5 13 13 14 14 13 13 10 16 19 17 17 6 19 12 9 11 9 8 11 15 16 14 11 5 5 7 8 11 15 16 16 17 24 22 28 29 31 27 22
12 12 11 8 7 6 5 7 9 11 13 13 13 11 13 16 16 9 9 15 7 5 11 26 16 9 18 24 21 7 8 6 5 8 13 8 7 5 3 11 7 11 13 13 17 12 24 18 23 21 32 35 29 25
12 12 10 8 7 6 6 8 8 10 13 12 13 13 14 7 4 3 5 7 14 9 25 25 21 21 24 19 17 9 6 3 3 8 6 3 3 4 2 12 9 11 9 16 14 25 21 21 18 24 24 30 32 24
13 11 9 8 8 7 7 8 8 10 12 10 9 7 7 3 4 4 9 11 16 12 15 19 17 21 13 21 10 8 4 4 11 3 3 5 3 3 4 9 11 12 11 10 16 12 19 17 17 25 21 24 29 30
12 10 9 8 8 7 7 8 8 9 11 8 6 6 4 3 6 10 22 17 17 17 14 16 12 15 20 13 7 5 6 5 6 4 6 8 3 5 12 11 6 13 12 10 18 10 11 14 17 24 21 21 25 28
12 11 9 9 8 8 8 9 9 10 10 6 3 5 5 11 15 15 13 12 14 17 19 13 6 17 14 5 6 6 6 4 5 9 13 9 8 5 15 8 3 9 13 15 8 19 14 12 8 12 18 23 22 23
12 11 10 10 9 9 9 10 10 11 12 11 7 6 6 15 20 15 16 13 8 22 17 7 13 7 7 4 7 3 7 3 12 16 12 19 2 13 13 6 3 8 12 13 8 9 7 13 12 13 11 17 17 18
12 12 11 10 9 10 10 12 12 13 9 6 4 9 13 11 15 16 24 8 12 8 9 10 6 4 6 5 8 7 9 14 16 16 22 16 15 13 16 11 8 10 8 9 8 6 10 2 12 7 6 10 14 15
10 9 10 11 9 10 11 12 12 10 10 2 7 10 17 17 4 16 19 18 9 12 15 8 8 6 6 5 12 15 16 20 18 14 15 23 7 19 17 16 8 9 12 12 12 11 9 5 5 10 9 13 16 13
8 9 10 9 8 9 10 9 9 10 9 8 12 11 16 17 20 14 8 6 11 13 12 8 5 12 11 10 10 15 20 19 18 21 24 19 10 13 15 11 8 7 6 14 15 15 10 5 6 5 2 12 13 9
8 7 7 8 8 8 8 6 7 8 3 4 8 16 17 11 14 14 8 6 8 11 13 6 10 16 14 10 16 19 19 19 14 17 21 18 26 11 7 7 7 8 15 14 17 17 11 7 9 5 3 3 10 9
8 8 8 8 9 11 13 10 13 14 13 10 15 23 15 11 11 8 5 6 3 8 12 15 10 17 19 17 15 17 16 13 15 15 16 18 21 25 15 4 9 15 8 18 19 21 16 8 14 7 4 6 11 10
5 6 8 9 11 15 17 14 17 10 12 11 17 16 4 2 2 7 14 11 8 14 12 14 16 21 22 12 12 15 13 21 13 14 18 23 14 7 16 11 9 9 10 13 6 16 16 13 7 12 5 4 7 8
6 6 7 9 8 9 11 10 14 11 16 15 16 19 8 3 9 9 11 8 9 10 12 13 18 18 18 14 12 13 16 14 14 15 21 22 18 21 16 13 10 11 7 5 13 17 15 3 10 12 8 2 1 3
9 9 6 5 9 10 9 7 7 7 10 17 19 18 16 8 10 9 5 1 8 10 10 11 17 16 17 12 10 10 10 9 14 20 22 19 21 10 8 15 6 5 10 10 13 10 3 7 9 6 3 2 2 4
11 8 8 12 13 8 10 7 9 12 20 20 22 19 16 3 8 7 8 14 13 11 11 12 7 7 9 12 15 20 23 19 16 19 21 15 11 7 10 8 3 2 3 15 15 6 8 5 8 6 9 4 6 4
9 7 7 6 7 6 6 10 14 16 13 17 21 14 8 11 4 4 10 11 13 15 12 11 9 8 13 15 12 11 9 8 12 13 9 11 12 5 3 1 6 5 15 10 10 11 15 11 7 5 5 6 3 2
15 11 8 3 11 7 12 12 11 16 13 13 13 18 23 15 4 4 3 7 11 9 8 9 7 5 7 10 12 11 11 15 22 26 21 13 13 10 7 2 5 10 12 11 10 9 10 12 9 6 3 4 4 6
14 13 7 8 13 12 12 11 17 17 20 21 23 12 5 4 2 2 1 3 7 7 6 10 12 10 13 11 12 14 15 17 18 21 19 15 15 11 12 12 9 7 6 10 9 8 8 8 6 3 5 4 4 6
11 8 6 6 5 7 16 16 17 15 20 28 19 13 3 4 6 6 4 9 3 7 10 10 14 13 16 15 12 5 6 5 12 14 8 8 11 9 11 12 11 12 10 7 4 2 2 3 2 3 3 2 6 5
8 5 4 6 12 14 15 15 16 18 20 19 12 9 9 12 10 15 9 8 9 3 7 7 2 2 3 11 15 10 2 8 5 3 4 9 6 3 3 4 5 5 8 13 11 11 8 7 6 4 5 6 4 8
1 2 6 9 11 12 13 11 16 21 22 5 19 11 5 1 6 4 5 4 1 3 2 7 9 6 5 7 11 10 6 5 2 6 7 5 5 3 2 6 7 7 4 5 6 6 6 7 8 6 7 8 6 3
3 4 9 10 11 16 20 25 19 14 19 5 8 4 8 4 5 9 11 7 8 4 7 10 10 9 7 7 6 7 6 5 4 2 4 7 7 6 9 5 6 6 8 8 9 7 4 6 6 6 8 9 9 9
8 10 10 7 7 14 24 20 8 8 10 6 4 3 9 13 13 10 8 7 9 13 10 5 8 9 7 7 6 4 4 4 4 4 4 4 5 5 5 2 2 6 6 4 7 10 10 10 10 11 11 10 10 10
Wind_Direction
259 313 309 317 321 323 336 341 346 347 347 349 346 347 339 350 7 9 12 26 35 28 40 40 38 22 1 10 19 354 6 2 9 23 25 23 4 5 352 14 13 347 339 324 326 260 252 265 246 259 252 256 263 260
275 318 310 311 310 317 332 335 340 345 345 345 344 336 349 351 358 355 355 352 360 344 309 59 44 26 22 340 334 6 14 16 22 23 26 15 3 6 355 335 324 16 5 303 291 269 295 293 285 268 263 260 259 260
287 300 304 303 298 313 330 332 336 343 344 342 342 329 327 335 333 342 344 341 338 349 304 343 342 328 357 4 11 9 351 26 22 19 8 12 358 356 332 310 320 312 308 349 333 320 306 302 290 283 273 267 262 261
269 298 296 292 289 309 326 331 333 340 347 351 343 334 329 321 328 335 338 335 342 343 356 0 328 312 327 337 342 346 329 298 321 342 337 349 356 343 313 318 339 354 327 336 344 345 328 323 308 304 298 284 277 279
289 283 275 280 282 309 322 331 329 337 346 351 341 334 336 323 322 325 333 332 340 345 336 350 325 330 317 309 307 337 298 265 306 309 313 318 322 329 327 303 329 343 345 345 347 351 347 335 332 323 312 292 293 292
275 273 262 268 272 304 314 331 327 336 344 349 343 342 330 325 321 311 312 318 328 326 334 350 289 308 311 268 309 320 310 220 258 291 302 292 277 320 318 305 323 333 340 340 341 354 350 346 348 351 333 301 287 276
267 266 256 254 261 287 315 337 331 336 341 343 340 336 332 325 324 319 313 313 320 318 317 323 283 291 309 216 295 311 309 250 252 275 281 268 296 313 296 299 313 323 327 337 341 349 355 356 348 350 349 338 284 273
243 254 247 240 244 270 313 336 333 338 335 334 332 333 325 317 315 322 309 306 303 300 294 275 273 274 286 282 273 302 311 315 244 242 252 282 263 308 283 289 318 334 332 344 346 349 357 359 357 353 351 355 342 327
231 239 238 231 235 260 299 319 322 334 338 332 332 331 327 332 328 318 309 295 287 280 279 280 284 291 265 269 275 309 300 265 270 228 235 231 254 279 293 282 331 350 334 345 337 353 352 354 3 1 354 359 2 351
234 230 232 227 236 263 298 309 318 329 335 333 335 349 342 329 330 324 316 307 287 266 266 280 305 274 280 311 313 266 280 240 240 248 234 241 255 262 343 360 334 339 355 4 2 353 342 352 4 3 6 8 3 360
234 226 228 227 236 262 296 307 319 328 333 332 331 340 328 321 319 326 325 327 303 331 344 351 342 289 299 327 284 237 298 277 253 227 226 215 231 287 4 26 318 317 329 315 359 356 352 353 9 6 12 9 6 3
224 223 222 227 235 257 286 296 310 325 330 330 332 324 326 336 340 346 316 317 330 330 354 348 328 324 320 345 350 319 311 262 243 232 248 120 283 325 48 3 337 338 332 316 310 351 4 353 14 9 4 16 14 12
222 221 223 229 238 257 281 289 302 318 325 331 339 336 341 11 315 269 309 320 334 322 341 0 349 336 333 347 326 348 339 333 322 31 29 294 102 109 75 286 343 323 326 332 342 345 8 355 360 8 4 12 18 21
222 220 225 233 244 257 276 285 296 304 320 328 323 320 301 292 273 324 313 316 335 326 337 329 332 305 328 344 338 343 344 6 360 355 4 356 34 8 2 328 319 301 331 346 339 329 22 352 350 17 15 9 14 18
221 219 224 236 245 257 274 288 288 291 305 300 290 271 261 290 316 321 356 11 346 357 333 355 342 324 345 353 8 360 359 323 340 334 330 338 317 331 349 349 1 313 324 312 347 336 353 348 329 349 7 10 8 16
219 219 225 232 240 257 272 282 280 282 289 288 250 221 257 319 304 344 326 302 334 309 332 327 321 311 332 354 8 343 318 299 325 319 330 327 291 342 352 345 334 306 303 324 48 347 325 316 3 339 348 10 2 8
219 220 230 232 239 255 266 274 276 280 273 252 271 310 270 293 335 328 346 348 344 328 314 302 316 323 322 349 341 324 318 320 326 320 307 320 315 341 332 333 337 334 306 320 337 309 330 345 324 347 357 5 2 8
218 224 233 239 246 257 265 269 269 278 285 262 284 290 283 287 17 329 339 336 331 348 323 342 334 345 315 318 332 334 337 332 285 285 316 302 254 309 303 290 314 355 358 326 284 248 296 89 312 23 360 344 332 357
218 217 236 250 253 261 269 268 262 277 279 276 287 310 286 309 325 327 348 331 340 352 341 27 326 336 341 341 339 329 329 334 332 327 328 333 321 318 292 301 272 285 308 306 298 297 251 143 245 152 287 309 318 359
229 238 251 253 250 251 254 269 296 295 277 341 288 274 252 269 307 326 345 346 339 332 356 1 339 328 329 327 322 324 307 336 311 309 311 314 317 275 252 312 239 290 301 282 308 306 220 240 167 159 89 352 327 338
236 249 245 243 246 249 248 224 246 265 274 280 278 285 287 335 306 322 279 334 312 270 320 348 2 329 315 314 324 321 322 353 344 333 336 321 310 307 298 340 309 304 305 331 311 281 261 151 137 145 87 339 332 334
240 247 246 253 258 265 270 253 234 252 287 280 275 289 243 176 91 262 294 303 243 293 307 332 351 355 352 334 346 354 325 322 332 337 335 337 323 335 334 319 303 343 7 337 5 31 356 212 176 112 165 245 300 4
233 250 268 283 264 263 278 249 228 244 258 269 285 297 307 221 255 292 310 295 246 286 292 322 332 354 354 335 354 350 1 357 336 317 321 326 313 330 328 306 245 22 351 1 353 359 3 227 203 212 158 228 277 18
243 258 270 257 251 262 295 278 275 265 256 268 275 279 269 245 257 287 303 250 254 301 307 326 340 349 341 9 5 347 352 314 308 304 315 320 322 342 17 63 67 53 6 352 343 345 333 254 263 297 82 154 192 334
257 264 247 251 249 260 260 276 281 260 271 282 282 283 262 262 283 301 282 276 287 313 291 315 289 271 276 275 278 287 291 299 299 317 331 354 352 358 8 30 345 317 340 346 343 349 26 132 142 181 212 128 32 333
253 244 242 272 300 276 284 294 280 285 266 303 303 311 314 332 232 319 287 324 302 329 310 316 310 257 279 300 315 320 333 345 9 6 4 354 3 1 335 333 276 343 358 9 40 107 105 108 79 48 57 81 81 20
250 253 293 295 228 247 266 298 296 307 312 311 321 327 311 294 279 329 338 310 320 329 339 334 329 304 312 342 358 3 23 20 18 17 15 21 18 27 26 15 296 338 6 19 64 104 101 96 94 80 59 37 21 37
256 254 240 249 276 262 287 292 283 283 296 309 315 303 274 298 173 7 200 327 334 339 347 17 29 31 30 6 1 8 3 356 357 355 356 14 22 50 51 50 58 57 68 57 80 90 73 109 121 69 8 1 20 17
266 279 258 257 246 285 288 281 290 304 331 324 284 276 264 253 238 220 286 26 31 45 17 356 343 359 354 5 23 16 131 343 304 329 359 344 353 34 42 42 30 41 61 44 51 55 49 20 6 1 74 21 342 358
265 237 251 260 267 281 280 302 320 301 302 298 269 213 236 298 312 344 63 77 83 182 247 249 329 179 294 300 328 360 147 178 211 275 290 303 341 22 51 74 54 23 19 29 42 56 69 48 64 30 349 349 341 331
170 265 269 284 285 264 272 272 318 325 308 269 197 160 308 309 113 67 31 130 276 347 42 297 339 346 289 281 323 357 18 358 300 247 290 319 338 349 64 49 22 37 53 29 51 346 23 30 0 353 323 348 16 13
245 241 264 264 291 305 298 307 317 325 309 151 79 103 141 36 35 14 20 27 6 331 288 295 331 354 340 346 338 347 17 22 37 28 326 358 14 65 77 30 355 17 55 27 8 10 9 347 347 360 37 51 39 39
248 240 241 302 294 323 330 315 316 301 341 28 91 70 29 18 13 357 333 340 357 345 346 330 331 340 348 357 8 14 3 19 30 32 30 13 31 56 49 45 27 58 67 44 13 19 27 39 51 54 48 41 37 39
Height
3150 3148 3146 3145 3143 3141 3139 3137 3135 3133 3130 3127 3125 3124 3122 3121 3118 3117 3115 3112 3111 3109 3108 3106 3104 3101 3099 3098 3098 3097 3096 3093 3090 3088 3088 3087 3087 3086 3085 3084 3082 3080 3078 3076 3073 3071 3070 3065 3067 3068 3065 3061 3059 3060
3146 3145 3143 3142 3142 3139 3137 3136 3133 3131 3129 3126 3124 3123 3121 3120 3118 3116 3115 3112 3110 3109 3108 3105 3103 3103 3101 3099 3097 3095 3095 3093 3092 3090 3090 3089 3088 3086 3084 3083 3082 3081 3081 3078 3076 3070 3067 3063 3060 3058 3055 3052 3051 3050
3144 3142 3141 3141 3140 3138 3136 3134 3132 3130 3127 3125 3123 3121 3119 3119 3117 3115 3113 3111 3109 3107 3106 3104 3103 3102 3100 3097 3096 3096 3093 3092 3091 3091 3090 3089 3087 3085 3083 3082 3079 3078 3075 3074 3070 3068 3060 3055 3051 3048 3046 3043 3042 3041
3141 3139 3139 3138 3137 3136 3135 3133 3131 3129 3126 3123 3122 3120 3118 3117 3116 3114 3111 3109 3107 3106 3104 3104 3102 3101 3100 3099 3097 3096 3094 3091 3089 3090 3089 3087 3086 3085 3082 3081 3078 3076 3073 3070 3065 3058 3051 3049 3044 3039 3035 3030 3027 3025
3137 3136 3136 3136 3135 3135 3133 3132 3130 3128 3125 3123 3121 3118 3116 3115 3114 3112 3110 3108 3106 3106 3103 3101 3099 3098 3097 3097 3095 3094 3092 3091 3088 3087 3087 3085 3083 3082 3079 3077 3075 3072 3069 3066 3062 3056 3050 3044 3037 3031 3027 3023 3020 3016
3134 3133 3133 3133 3133 3133 3132 3130 3129 3126 3124 3122 3119 3116 3115 3113 3111 3109 3108 3106 3104 3102 3099 3098 3096 3094 3092 3093 3092 3091 3090 3089 3088 3086 3085 3083 3081 3082 3077 3074 3073 3070 3067 3064 3060 3055 3049 3043 3036 3029 3023 3018 3015 3012
3131 3131 3131 3131 3131 3131 3130 3128 3128 3125 3123 3120 3118 3115 3113 3111 3109 3108 3107 3105 3102 3100 3097 3094 3092 3090 3089 3087 3088 3088 3087 3085 3084 3083 3082 3079 3080 3080 3075 3073 3069 3067 3064 3061 3058 3053 3047 3040 3035 3028 3020 3014 3009 3007
3127 3127 3128 3128 3128 3129 3128 3127 3126 3123 3121 3119 3116 3113 3111 3109 3108 3108 3106 3103 3101 3099 3096 3091 3089 3087 3086 3083 3081 3079 3079 3079 3079 3079 3079 3077 3077 3075 3073 3069 3068 3063 3060 3058 3055 3051 3045 3040 3035 3027 3019 3012 3006 3002
3123 3124 3125 3126 3126 3126 3126 3125 3125 3122 3120 3117 3114 3111 3109 3108 3108 3106 3102 3100 3098 3100 3094 3089 3085 3084 3081 3079 3078 3075 3072 3071 3073 3073 3074 3077 3074 3073 3071 3068 3065 3063 3060 3057 3053 3049 3045 3039 3035 3028 3020 3012 3006 3001
3120 3121 3124 3124 3124 3125 3124 3123 3123 3121 3118 3115 3112 3109 3109 3107 3106 3104 3100 3097 3092 3090 3087 3089 3090 3082 3084 3080 3074 3075 3069 3068 3066 3068 3068 3068 3068 3068 3067 3063 3062 3061 3058 3054 3052 3049 3045 3040 3034 3029 3021 3014 3007 3001
3118 3120 3121 3121 3122 3123 3122 3122 3121 3119 3116 3113 3111 3109 3108 3106 3105 3103 3101 3097 3088 3090 3088 3087 3082 3080 3080 3063 3068 3059 3062 3063 3063 3065 3064 3062 3062 3063 3063 3061 3060 3058 3055 3052 3050 3046 3042 3038 3034 3030 3024 3017 3010 3003
3115 3118 3119 3119 3120 3120 3120 3120 3119 3117 3115 3113 3110 3108 3106 3106 3105 3105 3102 3101 3098 3094 3092 3088 3084 3081 3077 3072 3069 3066 3062 3062 3060 3063 3058 3056 3060 3059 3059 3059 3059 3056 3054 3050 3046 3045 3040 3038 3035 3031 3027 3021 3013 3006
3114 3116 3116 3117 3118 3118 3118 3118 3117 3116 3114 3112 3110 3108 3107 3108 3107 3104 3102 3099 3095 3094 3092 3089 3085 3083 3077 3072 3067 3065 3064 3064 3062 3060 3060 3061 3058 3058 3059 3057 3056 3054 3052 3049 3046 3044 3042 3037 3035 3032 3027 3022 3018 3012
3113 3114 3114 3115 3115 3115 3115 3116 3115 3114 3113 3111 3110 3108 3107 3106 3104 3101 3098 3095 3095 3089 3085 3084 3083 3082 3076 3071 3068 3066 3066 3065 3064 3064 3063 3061 3060 3060 3059 3057 3056 3052 3049 3048 3046 3044 3040 3038 3035 3031 3028 3025 3021 3014
3110 3111 3112 3113 3114 3113 3113 3114 3113 3112 3111 3111 3110 3107 3105 3102 3100 3098 3093 3094 3093 3090 3090 3086 3081 3080 3075 3071 3070 3068 3069 3068 3066 3065 3063 3061 3059 3058 3057 3055 3054 3048 3047 3047 3045 3043 3040 3037 3034 3031 3030 3028 3024 3018
3107 3108 3109 3110 3111 3111 3111 3111 3111 3110 3109 3108 3105 3104 3105 3102 3097 3093 3094 3091 3092 3091 3088 3083 3081 3078 3075 3073 3071 3070 3070 3068 3067 3062 3060 3059 3056 3056 3054 3053 3052 3051 3048 3044 3041 3043 3041 3038 3035 3033 3030 3028 3027 3021
3104 3105 3107 3108 3108 3109 3108 3109 3108 3107 3105 3104 3102 3102 3101 3098 3096 3095 3092 3091 3089 3088 3086 3084 3081 3078 3076 3074 3072 3070 3069 3067 3065 3062 3058 3056 3054 3053 3053 3051 3049 3048 3046 3044 3042 3041 3041 3038 3035 3033 3030 3028 3028 3024
3103 3104 3105 3105 3105 3105 3106 3106 3106 3104 3101 3100 3100 3100 3097 3085 3084 3091 3092 3089 3089 3086 3084 3081 3079 3077 3075 3073 3071 3069 3067 3064 3061 3058 3056 3054 3048 3051 3049 3048 3047 3045 3044 3043 3041 3037 3038 3039 3035 3031 3030 3029 3028 3025
3101 3102 3102 3103 3102 3102 3103 3104 3104 3101 3099 3099 3099 3096 3093 3092 3092 3090 3089 3088 3086 3084 3082 3080 3078 3076 3074 3071 3069 3067 3064 3060 3058 3055 3052 3048 3048 3047 3046 3044 3042 3038 3038 3038 3037 3034 3031 3032 3037 3034 3032 3029 3027 3027
3099 3100 3100 3100 3100 3101 3102 3102 3102 3100 3097 3098 3096 3094 3086 3090 3090 3090 3087 3086 3085 3082 3080 3078 3077 3073 3071 3068 3067 3065 3061 3059 3056 3054 3050 3047 3045 3039 3037 3039 3036 3034 3034 3033 3033 3030 3029 3030 3029 3031 3032 3030 3029 3028
3097 3097 3098 3098 3098 3098 3099 3099 3099 3097 3096 3096 3090 3084 3084 3085 3088 3088 3084 3084 3085 3083 3082 3079 3075 3071 3068 3066 3064 3061 3058 3055 3053 3050 3047 3044 3041 3038 3038 3035 3027 3030 3030 3031 3026 3025 3026 3026 3025 3031 3030 3028 3029 3028
3096 3095 3096 3095 3095 3095 3093 3094 3094 3095 3094 3091 3087 3087 3082 3082 3085 3084 3084 3084 3081 3079 3078 3076 3073 3069 3064 3063 3059 3058 3056 3053 3048 3047 3045 3043 3040 3037 3036 3033 3028 3027 3026 3025 3024 3024 3026 3025 3027 3025 3030 3029 3028 3028
3094 3094 3094 3094 3094 3091 3090 3090 3090 3090 3089 3088 3086 3081 3081 3079 3079 3081 3082 3081 3079 3076 3073 3071 3069 3067 3064 3061 3057 3055 3053 3050 3046 3043 3041 3038 3036 3035 3032 3030 3027 3025 3024 3025 3024 3023 3025 3026 3027 3028 3028 3030 3028 3026
3092 3092 3092 3093 3090 3089 3089 3089 3089 3089 3088 3087 3085 3086 3081 3081 3081 3078 3078 3079 3077 3075 3071 3068 3066 3064 3062 3057 3055 3053 3051 3048 3046 3042 3040 3037 3034 3032 3029 3027 3026 3025 3022 3023 3024 3024 3025 3025 3026 3028 3028 3027 3025 3027
3092 3092 3091 3088 3088 3088 3087 3087 3087 3085 3083 3079 3082 3080 3064 3072 3078 3075 3075 3075 3074 3071 3069 3068 3066 3064 3062 3060 3057 3053 3049 3045 3042 3040 3037 3033 3032 3032 3030 3029 3028 3028 3027 3025 3023 3023 3021 3023 3025 3027 3027 3028 3028 3027
3088 3087 3087 3085 3086 3087 3087 3085 3085 3080 3078 3081 3080 3075 3072 3073 3071 3075 3074 3074 3072 3069 3066 3064 3063 3060 3056 3054 3052 3049 3047 3045 3044 3040 3037 3034 3032 3031 3030 3030 3028 3028 3027 3026 3024 3023 3024 3025 3026 3027 3028 3028 3028 3028
3084 3084 3084 3084 3086 3085 3084 3081 3080 3080 3077 3076 3076 3075 3072 3069 3071 3072 3071 3071 3068 3065 3064 3062 3060 3057 3055 3052 3050 3048 3047 3045 3042 3040 3038 3035 3033 3032 3031 3031 3029 3029 3028 3027 3028 3029 3029 3029 3029 3030 3029 3029 3028 3028
3081 3082 3082 3084 3084 3083 3081 3081 3080 3077 3074 3075 3074 3072 3072 3070 3070 3069 3068 3066 3064 3062 3062 3060 3059 3057 3055 3052 3049 3047 3046 3045 3043 3042 3040 3038 3036 3034 3033 3032 3032 3031 3031 3031 3031 3031 3030 3030 3031 3030 3029 3029 3029 3029
3078 3079 3080 3080 3081 3081 3080 3080 3077 3077 3076 3071 3071 3066 3069 3070 3068 3065 3061 3061 3062 3061 3061 3059 3058 3056 3054 3053 3053 3051 3051 3050 3048 3046 3043 3041 3039 3038 3036 3035 3034 3033 3034 3033 3032 3032 3032 3032 3031 3031 3031 3030 3029 3028
3076 3076 3077 3078 3079 3080 3079 3079 3076 3071 3071 3071 3067 3068 3067 3066 3065 3065 3062 3061 3061 3063 3062 3061 3060 3059 3058 3055 3052 3052 3050 3049 3048 3047 3045 3043 3042 3040 3039 3039 3038 3037 3036 3035 3034 3034 3034 3034 3032 3032 3031 3030 3030 3028
3075 3076 3076 3077 3079 3076 3076 3074 3070 3065 3065 3057 3054 3063 3065 3064 3064 3063 3062 3063 3062 3061 3061 3059 3058 3058 3056 3054 3052 3050 3050 3048 3047 3046 3045 3043 3042 3041 3041 3040 3040 3039 3038 3038 3037 3036 3036 3034 3033 3033 3031 3030 3029 3028
3073 3075 3077 3075 3075 3075 3075 3071 3068 3068 3064 3056 3064 3067 3067 3065 3064 3063 3063 3062 3061 3060 3060 3058 3057 3056 3055 3054 3052 3050 3049 3048 3047 3046 3045 3044 3044 3043 3042 3042 3041 3041 3040 3039 3039 3038 3036 3035 3035 3034 3032 3031 3030 3029
3074 3072 3073 3072 3070 3068 3065 3063 3065 3068 3068 3065 3066 3067 3064 3063 3063 3063 3062 3061 3060 3058 3056 3056 3055 3054 3053 3052 3051 3051 3049 3048 3047 3046 3046 3046 3045 3045 3044 3043 3043 3042 3042 3041 3040 3039 3038 3037 3036 3035 3034 3033 3032 3032